Time,TemperatureF,DewpointF,PressureIn,WindDirection,WindDirectionDegrees,WindSpeedMPH,WindSpeedGustMPH,Humidity,HourlyPrecipIn,Conditions,Clouds,dailyrainin,SoftwareType,DateUTC
2013-07-11 00:05:00,65.8,59.0,30.03,West,269,0.0,1.0,79,0.00,,,0.00,weatherlink.com 1.10,2013-07-11 05:05:00,
2013-07-11 00:20:00,65.7,59.0,30.03,West,269,0.0,1.0,79,0.00,,,0.00,weatherlink.com 1.10,2013-07-11 05:20:00,
2013-07-11 00:35:00,65.3,59.0,30.03,West,270,0.0,1.0,80,0.00,,,0.00,weatherlink.com 1.10,2013-07-11 05:35:00,
2013-07-11 00:50:00,65.1,59.0,30.03,West,270,0.0,1.0,81,0.00,,,0.00,weatherlink.com 1.10,2013-07-11 05:50:00,
2013-07-11 01:06:00,64.1,59.0,30.03,West,270,0.0,1.0,83,0.00,,,0.00,weatherlink.com 1.10,2013-07-11 06:06:00,
2013-07-11 01:21:00,63.7,59.0,30.04,West,269,0.0,1.0,84,0.00,,,0.00,weatherlink.com 1.10,2013-07-11 06:21:00,
2013-07-11 01:36:00,63.1,59.0,30.04,West,270,0.0,1.0,85,0.00,,,0.00,weatherlink.com 1.10,2013-07-11 06:36:00,
2013-07-11 01:51:00,62.9,59.0,30.04,West,270,0.0,1.0,86,0.00,,,0.00,weatherlink.com 1.10,2013-07-11 06:51:00,
2013-07-11 02:06:00,62.2,58.0,30.04,West,269,0.0,1.0,87,0.00,,,0.00,weatherlink.com 1.10,2013-07-11 07:06:00,
2013-07-11 02:21:00,62.3,58.0,30.04,West,270,0.0,1.0,87,0.00,,,0.00,weatherlink.com 1.10,2013-07-11 07:21:00,
2013-07-11 02:36:00,62.4,59.0,30.04,North,10,2.0,8.0,89,0.00,,,0.00,weatherlink.com 1.10,2013-07-11 07:36:00,
2013-07-11 02:51:00,62.3,59.0,30.05,NE,54,0.0,3.0,89,0.00,,,0.00,weatherlink.com 1.10,2013-07-11 07:51:00,
2013-07-11 03:06:00,61.4,59.0,30.05,NE,54,0.0,0.0,90,0.00,,,0.00,weatherlink.com 1.10,2013-07-11 08:06:00,
2013-07-11 03:21:00,61.0,58.0,30.05,NE,54,0.0,0.0,90,0.00,,,0.00,weatherlink.com 1.10,2013-07-11 08:21:00,
2013-07-11 03:36:00,60.3,58.0,30.05,NE,53,0.0,2.0,92,0.00,,,0.00,weatherlink.com 1.10,2013-07-11 08:36:00,
2013-07-11 03:51:00,59.8,58.0,30.05,NE,53,0.0,1.0,93,0.00,,,0.00,weatherlink.com 1.10,2013-07-11 08:51:00,
2013-07-11 04:06:00,59.4,57.0,30.05,NE,53,0.0,0.0,93,0.00,,,0.00,weatherlink.com 1.10,2013-07-11 09:06:00,
2013-07-11 04:21:00,59.4,58.0,30.05,NE,53,0.0,0.0,94,0.00,,,0.00,weatherlink.com 1.10,2013-07-11 09:21:00,
2013-07-11 04:36:00,58.7,57.0,30.05,NE,53,0.0,0.0,94,0.00,,,0.00,weatherlink.com 1.10,2013-07-11 09:36:00,
2013-07-11 04:51:00,58.5,57.0,30.06,NE,54,0.0,0.0,94,0.00,,,0.00,weatherlink.com 1.10,2013-07-11 09:51:00,
2013-07-11 05:06:00,59.0,58.0,30.06,NE,54,0.0,1.0,95,0.00,,,0.00,weatherlink.com 1.10,2013-07-11 10:06:00,
2013-07-11 05:21:00,58.6,57.0,30.07,NE,54,0.0,1.0,95,0.00,,,0.00,weatherlink.com 1.10,2013-07-11 10:21:00,
2013-07-11 05:36:00,58.9,58.0,30.07,NE,54,1.0,1.0,96,0.00,,,0.00,weatherlink.com 1.10,2013-07-11 10:36:00,
2013-07-11 05:51:00,59.0,58.0,30.07,NE,54,1.0,1.0,96,0.00,,,0.00,weatherlink.com 1.10,2013-07-11 10:51:00,
2013-07-11 06:06:00,59.4,58.0,30.07,NE,54,0.0,1.0,96,0.00,,,0.00,weatherlink.com 1.10,2013-07-11 11:06:00,
2013-07-11 06:21:00,60.4,59.0,30.08,NE,54,0.0,0.0,96,0.00,,,0.00,weatherlink.com 1.10,2013-07-11 11:21:00,
2013-07-11 06:36:00,61.5,60.0,30.08,NE,54,1.0,1.0,96,0.00,,,0.00,weatherlink.com 1.10,2013-07-11 11:36:00,
2013-07-11 06:51:00,61.9,60.0,30.08,NE,51,1.0,2.0,94,0.00,,,0.00,weatherlink.com 1.10,2013-07-11 11:51:00,
2013-07-11 07:06:00,63.0,60.0,30.08,NE,43,0.0,1.0,91,0.00,,,0.00,weatherlink.com 1.10,2013-07-11 12:06:00,
2013-07-11 07:21:00,64.9,62.0,30.08,NE,43,0.0,1.0,89,0.00,,,0.00,weatherlink.com 1.10,2013-07-11 12:21:00,
2013-07-11 07:36:00,67.2,64.0,30.08,NE,43,0.0,1.0,88,0.00,,,0.00,weatherlink.com 1.10,2013-07-11 12:36:00,
2013-07-11 07:51:00,68.5,63.0,30.08,SSE,159,2.0,2.0,82,0.00,,,0.00,weatherlink.com 1.10,2013-07-11 12:51:00,
2013-07-11 08:06:00,69.0,63.0,30.08,SSE,153,2.0,3.0,80,0.00,,,0.00,weatherlink.com 1.10,2013-07-11 13:06:00,
2013-07-11 08:21:00,69.6,63.0,30.07,South,187,2.0,4.0,79,0.00,,,0.00,weatherlink.com 1.10,2013-07-11 13:21:00,
2013-07-11 09:07:00,73.5,64.0,30.07,South,191,4.0,4.0,72,0.00,,,0.00,weatherlink.com 1.10,2013-07-11 14:07:00,
2013-07-11 09:22:00,74.6,65.0,30.07,South,171,3.0,3.0,71,0.00,,,0.00,weatherlink.com 1.10,2013-07-11 14:22:00,
2013-07-11 09:37:00,75.1,64.0,30.06,SE,137,4.0,5.0,68,0.00,,,0.00,weatherlink.com 1.10,2013-07-11 14:37:00,
2013-07-11 09:52:00,75.6,64.0,30.06,South,180,2.0,6.0,67,0.00,,,0.00,weatherlink.com 1.10,2013-07-11 14:52:00,
2013-07-11 10:37:00,77.5,60.0,30.06,SW,232,4.0,8.0,56,0.00,,,0.00,weatherlink.com 1.10,2013-07-11 15:37:00,
2013-07-11 10:52:00,78.2,60.0,30.06,SSW,202,1.0,7.0,53,0.00,,,0.00,weatherlink.com 1.10,2013-07-11 15:52:00,
2013-07-11 11:07:00,78.5,60.0,30.06,SSW,195,7.0,9.0,53,0.00,,,0.00,weatherlink.com 1.10,2013-07-11 16:07:00,
2013-07-11 11:22:00,79.1,61.0,30.06,SW,233,3.0,10.0,54,0.00,,,0.00,weatherlink.com 1.10,2013-07-11 16:22:00,
2013-07-11 11:37:00,78.9,58.0,30.05,SE,140,8.0,11.0,49,0.00,,,0.00,weatherlink.com 1.10,2013-07-11 16:37:00,
2013-07-11 11:52:00,78.8,59.0,30.05,WSW,240,0.0,9.0,51,0.00,,,0.00,weatherlink.com 1.10,2013-07-11 16:52:00,
2013-07-11 12:07:00,79.1,59.0,30.04,South,188,7.0,11.0,51,0.00,,,0.00,weatherlink.com 1.10,2013-07-11 17:07:00,
2013-07-11 12:22:00,79.2,59.0,30.04,SE,146,8.0,12.0,50,0.00,,,0.00,weatherlink.com 1.10,2013-07-11 17:22:00,
2013-07-11 12:37:00,79.3,59.0,30.04,SSW,198,5.0,11.0,50,0.00,,,0.00,weatherlink.com 1.10,2013-07-11 17:37:00,
2013-07-11 12:52:00,80.0,60.0,30.04,SW,219,4.0,11.0,51,0.00,,,0.00,weatherlink.com 1.10,2013-07-11 17:52:00,
2013-07-11 13:22:00,81.0,60.0,30.03,SSW,206,6.0,10.0,49,0.00,,,0.00,weatherlink.com 1.10,2013-07-11 18:22:00,
2013-07-11 13:37:00,81.3,61.0,30.02,SW,226,3.0,10.0,50,0.00,,,0.00,weatherlink.com 1.10,2013-07-11 18:37:00,
2013-07-11 13:52:00,81.6,62.0,30.02,South,187,5.0,10.0,52,0.00,,,0.00,weatherlink.com 1.10,2013-07-11 18:52:00,
2013-07-11 14:07:00,81.6,61.0,30.01,SSE,168,6.0,9.0,50,0.00,,,0.00,weatherlink.com 1.10,2013-07-11 19:07:00,
2013-07-11 14:22:00,81.3,60.0,30.01,SSW,212,4.0,12.0,49,0.00,,,0.00,weatherlink.com 1.10,2013-07-11 19:22:00,
2013-07-11 14:37:00,82.1,61.0,30.01,SW,214,9.0,12.0,49,0.00,,,0.00,weatherlink.com 1.10,2013-07-11 19:37:00,
2013-07-11 14:52:00,82.1,59.0,30.01,SSW,208,6.0,12.0,46,0.00,,,0.00,weatherlink.com 1.10,2013-07-11 19:52:00,
2013-07-11 15:07:00,82.8,60.0,30.00,SSW,208,4.0,10.0,46,0.00,,,0.00,weatherlink.com 1.10,2013-07-11 20:07:00,
2013-07-11 15:22:00,83.1,60.0,30.00,SE,128,9.0,10.0,46,0.00,,,0.00,weatherlink.com 1.10,2013-07-11 20:22:00,
2013-07-11 15:37:00,82.9,62.0,29.99,SSW,197,7.0,13.0,50,0.00,,,0.00,weatherlink.com 1.10,2013-07-11 20:37:00,
2013-07-11 15:52:00,82.9,61.0,29.99,South,183,3.0,12.0,47,0.00,,,0.00,weatherlink.com 1.10,2013-07-11 20:52:00,
2013-07-11 16:07:00,83.2,59.0,29.99,SE,136,7.0,10.0,44,0.00,,,0.00,weatherlink.com 1.10,2013-07-11 21:07:00,
2013-07-11 16:22:00,83.3,60.0,29.98,SSE,150,2.0,13.0,46,0.00,,,0.00,weatherlink.com 1.10,2013-07-11 21:22:00,
2013-07-11 16:37:00,83.5,60.0,29.97,SSW,192,2.0,10.0,45,0.00,,,0.00,weatherlink.com 1.10,2013-07-11 21:37:00,
2013-07-11 16:53:00,83.6,60.0,29.97,SSE,148,6.0,10.0,45,0.00,,,0.00,weatherlink.com 1.10,2013-07-11 21:53:00,
2013-07-11 17:08:00,83.1,60.0,29.97,ESE,121,6.0,12.0,46,0.00,,,0.00,weatherlink.com 1.10,2013-07-11 22:08:00,
2013-07-11 17:23:00,83.3,60.0,29.97,SSE,168,6.0,10.0,46,0.00,,,0.00,weatherlink.com 1.10,2013-07-11 22:23:00,
2013-07-11 17:38:00,83.5,61.0,29.96,SSW,205,7.0,11.0,46,0.00,,,0.00,weatherlink.com 1.10,2013-07-11 22:38:00,
2013-07-11 17:53:00,83.6,61.0,29.96,SW,223,2.0,10.0,46,0.00,,,0.00,weatherlink.com 1.10,2013-07-11 22:53:00,
2013-07-11 18:08:00,83.8,61.0,29.96,ESE,117,3.0,8.0,47,0.00,,,0.00,weatherlink.com 1.10,2013-07-11 23:08:00,
2013-07-11 18:23:00,83.4,62.0,29.95,South,190,4.0,9.0,48,0.00,,,0.00,weatherlink.com 1.10,2013-07-11 23:23:00,
2013-07-11 19:08:00,82.5,61.0,29.94,SSW,208,3.0,7.0,48,0.00,,,0.00,weatherlink.com 1.10,2013-07-12 00:08:00,
2013-07-11 19:23:00,82.6,62.0,29.94,SW,216,2.0,5.0,50,0.00,,,0.00,weatherlink.com 1.10,2013-07-12 00:23:00,
2013-07-11 19:38:00,82.5,64.0,29.93,SSE,165,2.0,4.0,53,0.00,,,0.00,weatherlink.com 1.10,2013-07-12 00:38:00,
2013-07-11 19:53:00,82.0,64.0,29.93,SW,228,2.0,4.0,54,0.00,,,0.00,weatherlink.com 1.10,2013-07-12 00:53:00,
2013-07-11 20:08:00,81.3,64.0,29.93,SW,218,1.0,2.0,55,0.00,,,0.00,weatherlink.com 1.10,2013-07-12 01:08:00,
2013-07-11 20:23:00,79.7,63.0,29.93,South,169,2.0,4.0,56,0.00,,,0.00,weatherlink.com 1.10,2013-07-12 01:23:00,
2013-07-11 20:38:00,78.1,62.0,29.92,SSW,211,0.0,3.0,59,0.00,,,0.00,weatherlink.com 1.10,2013-07-12 01:38:00,
2013-07-11 21:08:00,76.1,61.0,29.93,SSW,194,4.0,5.0,60,0.00,,,0.00,weatherlink.com 1.10,2013-07-12 02:08:00,
2013-07-11 21:23:00,75.6,62.0,29.93,SW,222,1.0,5.0,62,0.00,,,0.00,weatherlink.com 1.10,2013-07-12 02:23:00,
2013-07-11 21:53:00,74.5,61.0,29.93,SE,146,5.0,6.0,64,0.00,,,0.00,weatherlink.com 1.10,2013-07-12 02:53:00,
2013-07-11 22:08:00,74.0,61.0,29.93,SW,223,0.0,6.0,65,0.00,,,0.00,weatherlink.com 1.10,2013-07-12 03:08:00,
2013-07-11 22:23:00,73.0,62.0,29.94,South,187,4.0,4.0,68,0.00,,,0.00,weatherlink.com 1.10,2013-07-12 03:23:00,
2013-07-11 22:38:00,72.6,61.0,29.93,SSE,151,5.0,7.0,68,0.00,,,0.00,weatherlink.com 1.10,2013-07-12 03:38:00,
2013-07-11 22:53:00,73.0,61.0,29.93,SW,227,2.0,5.0,66,0.00,,,0.00,weatherlink.com 1.10,2013-07-12 03:53:00,
2013-07-11 23:08:00,73.5,61.0,29.94,SW,217,4.0,6.0,64,0.00,,,0.00,weatherlink.com 1.10,2013-07-12 04:08:00,
2013-07-11 23:23:00,73.8,60.0,29.94,SSW,201,2.0,8.0,63,0.00,,,0.00,weatherlink.com 1.10,2013-07-12 04:23:00,
2013-07-11 23:38:00,73.8,60.0,29.94,SW,223,5.0,8.0,63,0.00,,,0.00,weatherlink.com 1.10,2013-07-12 04:38:00,
2013-07-11 23:53:00,74.0,60.0,29.93,SSE,165,4.0,9.0,61,0.00,,,0.00,weatherlink.com 1.10,2013-07-12 04:53:00,